Location: Unspecified
(33.6682°S, 0.0000°E)
Time: 05:36:56
(UTC+00:00)

Vanguard 1 - Pass Details

Date: 30 June 2019
Orbit: 653 x 3830 km, 34.3° (Epoch: 22 July)

Event Time Altitude Azimuth Distance (km) Brightness Sun altitude
Rises 18:15:50 0° 257° (WSW) 4,519 14.5 -15.0°
Reaches altitude 10° 18:18:20 10° 261° (W) 3,840 14.1 -15.5°
Maximum altitude 18:28:46 58° 336° (NNW) 2,698 12.4 -17.5°
Drops below altitude 10° 18:47:28 10° 48° (NE) 6,507 13.9 -21.3°
Sets 18:53:18 0° 51° (NE) 7,787 14.3 -22.5°
